Theta_e
320 321 322 323 326 323 322 321 319 319 319 316 316 319 321 319 322 323 308 306 310 314 316 320 322 324 326 329 331 332 333 333 333 334 333 333 334 334 335 336 336 336 336 337 338 339 338 337 336
320 321 322 323 327 324 322 320 320 319 317 315 314 315 318 320 312 312 309 304 309 311 314 316 317 319 321 323 324 325 328 329 330 330 330 330 330 331 331 331 332 333 333 336 337 337 335 336 336
319 319 327 325 323 322 322 319 320 316 315 315 315 311 315 317 310 310 305 303 308 309 312 313 314 316 316 318 319 318 318 318 319 320 321 322 325 325 326 327 328 329 330 332 334 334 334 335 334
319 319 317 322 322 321 320 319 318 316 313 312 314 316 309 307 309 306 301 301 305 306 308 309 311 312 312 313 314 313 312 312 312 313 313 316 317 316 317 319 320 323 325 326 328 330 331 332 332
316 321 322 322 321 318 317 317 317 317 317 315 312 317 313 306 304 301 299 299 300 301 304 305 304 305 308 309 309 309 308 307 307 306 305 307 308 307 306 308 311 313 316 319 322 325 325 327 330
321 319 321 321 320 317 316 315 317 317 315 313 313 313 313 305 302 300 299 298 298 297 296 297 297 300 301 304 304 303 302 300 299 298 297 297 297 297 297 297 299 301 303 306 310 313 316 320 323
322 322 322 321 320 318 317 314 316 317 316 315 312 316 310 303 302 300 299 298 297 296 295 295 295 294 295 296 297 297 297 296 296 295 295 295 295 295 295 295 296 296 297 297 298 299 304 313 319
319 322 320 319 320 320 315 314 312 315 316 308 311 317 316 306 300 299 298 298 297 296 295 295 294 294 294 295 295 295 295 294 295 295 295 295 295 295 294 294 295 295 296 296 298 299 299 298 298
316 321 321 320 318 319 313 315 310 308 312 309 309 309 306 304 299 299 298 297 296 295 295 294 294 294 294 294 294 294 294 294 294 294 294 295 295 294 294 294 294 294 295 295 295 295 296 296 297
320 321 319 317 317 317 314 315 314 312 312 311 309 306 301 302 300 300 300 299 297 296 295 294 294 294 294 293 294 294 294 294 294 294 294 294 294 294 294 294 294 294 294 294 294 295 295 298 300
316 319 316 316 314 314 315 313 313 314 315 315 315 312 303 302 301 301 301 301 298 296 295 294 294 293 293 293 293 293 293 293 294 294 293 293 293 293 293 293 293 293 293 295 296 298 298 298 299
318 314 315 315 314 313 314 312 312 313 317 313 313 311 305 304 303 302 302 301 298 295 295 293 293 293 293 293 293 293 293 293 293 292 292 292 292 291 291 292 292 292 293 293 294 295 296 296 297
316 315 314 314 313 313 310 313 314 313 313 311 307 306 306 305 304 302 302 300 297 295 294 294 293 293 292 293 292 292 292 292 291 291 291 291 290 290 290 290 290 291 291 291 292 293 294 295 296
314 314 315 314 314 312 313 314 310 315 311 311 306 307 306 305 304 302 300 299 297 295 294 293 293 292 292 292 292 292 291 291 290 290 291 290 289 288 289 289 289 289 289 289 289 290 291 293 294
312 315 315 314 313 314 311 315 313 315 306 309 307 307 306 305 303 302 300 299 296 295 294 293 292 292 292 291 291 291 290 290 290 290 289 288 288 288 287 288 288 288 287 288 288 289 290 290 291
315 314 319 315 312 311 312 316 318 314 309 311 310 308 306 304 303 301 300 298 296 295 294 293 292 291 291 291 291 290 290 290 289 289 288 288 287 287 286 287 287 286 286 287 288 288 288 289 289
316 318 317 316 312 312 313 317 316 309 308 311 313 310 307 305 303 301 299 297 295 295 293 293 292 291 291 290 290 289 289 289 289 288 288 287 287 286 285 285 285 285 286 286 287 287 287 288 288
317 317 316 316 314 311 314 315 315 314 309 311 313 312 309 305 304 301 299 296 294 294 293 293 292 292 290 290 289 289 289 289 288 288 287 286 285 285 284 284 284 285 285 286 286 286 286 287 288
313 314 316 318 311 312 314 314 314 313 313 312 312 313 311 307 305 302 299 296 293 293 292 292 292 291 290 290 290 289 290 289 288 287 287 285 285 284 284 284 284 284 285 285 285 285 286 286 286
315 317 318 317 309 309 313 312 312 311 312 312 313 313 312 309 305 303 299 295 292 292 292 291 291 291 290 290 289 289 289 288 287 286 286 285 285 284 283 283 283 284 284 284 285 284 285 285 286
315 317 318 315 310 308 308 312 311 311 309 310 310 311 311 309 307 303 298 295 293 292 291 291 291 291 290 289 288 287 287 286 286 287 286 285 284 283 282 282 282 283 283 284 284 284 284 284 284
317 314 313 312 312 317 308 316 315 313 312 310 313 313 310 307 305 303 299 296 294 293 291 291 290 290 289 288 288 288 288 289 288 286 285 284 283 282 282 281 281 282 283 283 283 282 283 283 283
316 307 309 309 311 309 314 312 313 307 310 311 312 313 310 308 305 303 300 297 295 292 291 291 290 289 288 288 288 288 287 287 286 285 284 283 282 282 281 281 281 282 282 282 282 282 282 282 282
305 308 308 306 309 315 315 314 313 311 311 311 312 312 309 306 304 303 300 296 294 292 291 291 290 289 288 287 287 287 287 286 285 284 283 282 282 281 281 280 280 281 281 281 281 281 281 281 281
308 313 317 321 319 318 309 309 311 310 310 311 313 313 307 305 303 302 299 295 294 291 290 290 290 289 288 288 287 286 286 285 284 283 282 281 281 281 280 280 280 280 280 280 280 280 280 280 280
310 314 321 322 318 317 307 310 312 310 310 310 307 307 304 303 301 300 298 296 293 291 290 290 289 289 288 287 286 285 284 283 282 281 281 280 280 279 279 279 279 279 279 279 279 279 279 279 279
309 313 311 317 306 314 314 314 312 309 308 307 306 306 307 304 301 299 297 295 294 291 291 290 290 289 288 287 286 284 283 282 281 280 279 279 278 278 278 278 278 278 278 278 278 278 278 278 278
306 306 312 313 321 320 316 316 315 312 310 309 307 307 309 305 302 299 297 294 293 292 291 290 290 289 288 287 285 283 282 280 279 278 278 278 277 277 277 277 277 277 277 277 277 277 277 277 277
304 308 306 307 311 317 317 314 310 310 309 309 309 310 310 306 304 301 297 294 293 292 291 290 289 289 287 285 283 282 280 279 278 277 277 277 276 276 276 276 276 276 276 276 276 276 275 275 275
304 309 309 313 314 311 313 314 308 310 309 308 308 307 306 304 304 302 297 294 292 291 291 290 289 288 286 283 282 280 279 278 277 277 276 276 276 276 275 275 275 275 274 274 274 274 274 274 274
Wind_Speed
3 1 0 3 4 3 4 5 1 7 6 2 3 5 9 3 3 1 6 3 3 4 5 8 10 10 8 5 5 5 5 6 6 10 8 9 8 7 8 9 7 8 10 11 12 12 12 15 16
4 2 1 1 4 4 3 6 9 8 5 9 6 4 4 2 2 6 7 4 5 5 5 7 8 10 11 12 12 12 4 3 2 2 4 2 3 3 3 4 4 5 6 9 10 12 12 13 14
3 2 2 2 3 5 1 8 8 6 12 5 4 2 1 1 4 9 6 7 8 6 6 7 9 10 11 12 12 12 13 12 12 11 10 8 8 7 6 5 3 4 4 5 6 8 9 11 13
3 3 2 5 5 2 2 8 8 12 5 4 1 3 2 0 6 7 11 9 9 8 8 9 10 11 11 12 12 12 13 13 13 13 13 13 12 10 7 7 8 6 5 5 6 7 10 12 12
1 2 3 3 4 2 3 5 11 14 7 7 6 2 2 4 8 13 12 10 10 9 9 7 8 9 10 11 11 11 11 12 12 11 10 11 11 11 11 12 12 12 11 11 12 11 11 12 11
3 2 4 6 4 3 3 7 10 12 5 5 5 3 1 8 15 14 12 11 9 10 9 7 7 8 8 9 10 9 9 8 8 8 7 7 8 9 10 10 10 11 11 11 13 14 14 14 14
3 3 2 2 3 3 4 8 10 13 8 6 1 4 3 13 16 16 14 12 10 10 9 7 7 7 7 6 7 7 7 8 9 10 10 10 10 10 11 11 11 12 13 14 14 14 15 17 19
1 2 3 3 3 3 6 9 2 11 10 3 4 6 4 17 21 18 15 13 11 10 8 8 7 7 6 5 5 6 7 9 10 11 12 13 14 14 14 14 15 14 14 15 15 15 15 18 18
1 3 4 3 5 3 8 9 4 1 4 5 7 4 2 18 23 20 17 15 13 12 11 11 9 8 6 6 6 7 8 9 10 11 12 13 13 15 15 16 16 15 15 15 16 16 18 18 17
3 3 3 1 3 3 7 9 7 6 8 8 8 10 5 23 26 25 24 22 19 15 12 11 10 9 8 6 6 6 6 7 9 10 11 12 12 13 14 15 18 19 18 16 17 17 17 15 14
3 3 0 2 5 4 4 5 6 7 11 13 15 14 17 25 26 26 25 22 21 16 13 12 11 10 9 7 6 5 5 6 7 8 10 11 11 12 12 13 15 15 17 15 15 14 13 16 15
4 4 3 1 4 4 4 4 5 14 16 1 10 7 21 22 27 29 27 25 22 20 16 12 11 11 10 8 7 6 5 5 5 7 8 10 11 11 13 13 14 15 15 16 16 15 16 15 16
5 4 5 4 5 5 3 9 8 15 17 11 5 10 18 20 27 28 26 24 23 21 17 15 13 12 12 10 8 6 5 4 4 5 8 10 10 12 12 13 13 12 13 14 15 15 16 16 15
3 4 5 5 5 4 6 5 3 6 6 14 12 15 17 20 28 26 28 29 26 22 20 17 15 13 12 9 8 6 4 3 3 4 6 9 10 10 10 11 11 12 14 15 15 17 18 19 18
0 6 6 10 6 4 4 9 12 18 7 10 14 15 16 20 24 33 32 31 29 26 23 21 17 16 13 10 8 6 4 3 1 2 5 7 9 10 11 12 13 13 16 16 16 17 16 18 19
3 3 5 5 8 2 5 14 13 6 10 15 15 15 16 20 28 29 28 29 28 26 25 21 19 17 15 12 11 9 7 4 1 2 4 6 8 10 10 10 11 14 14 15 16 17 19 20 21
4 10 9 4 11 5 11 15 4 3 8 15 16 16 16 17 23 30 31 31 30 29 26 23 20 18 16 14 11 10 8 5 4 4 5 8 10 10 10 9 10 12 12 13 15 17 17 21 23
12 8 8 10 6 8 10 22 23 16 12 22 23 20 18 19 24 31 32 30 29 29 27 25 23 20 18 14 11 9 8 7 5 6 7 8 7 8 9 10 11 12 11 12 14 16 16 18 22
7 8 17 14 4 5 18 22 25 22 19 24 24 21 20 21 19 26 30 31 30 29 28 26 25 22 19 16 12 9 8 8 8 9 9 8 8 10 11 10 11 11 12 14 14 15 17 19 19
10 13 22 14 3 8 15 22 22 22 25 24 25 24 21 18 16 21 27 31 32 31 29 28 26 24 22 17 14 10 9 8 8 9 9 9 11 12 12 11 12 11 12 13 13 14 16 16 12
12 18 17 11 4 8 10 16 10 8 15 20 23 23 19 17 16 17 23 31 32 33 34 32 28 25 23 20 16 13 10 10 9 8 6 8 11 12 12 12 12 12 12 13 14 14 14 16 16
14 8 12 8 5 12 3 18 13 14 14 12 22 14 14 15 14 15 21 29 36 36 32 31 28 26 25 24 20 16 13 11 8 6 8 10 12 12 12 12 12 12 13 15 14 13 14 16 18
6 2 4 3 8 6 12 10 9 2 6 17 17 16 12 13 14 17 18 27 31 32 33 32 28 27 25 26 21 17 15 12 10 9 11 12 12 13 14 13 13 14 14 16 17 18 17 17 19
8 3 1 2 4 10 18 18 5 5 7 8 13 14 9 10 12 13 17 21 25 29 31 32 31 28 27 26 22 20 17 14 11 10 10 9 10 12 13 13 13 15 15 16 17 18 20 22 22
4 3 5 6 6 15 2 8 15 14 12 14 18 15 5 8 9 11 14 18 23 30 32 32 33 32 28 26 23 21 18 15 13 11 9 10 12 13 13 14 14 15 16 18 19 21 23 24 26
11 6 6 14 15 25 5 11 11 11 16 20 7 10 4 7 8 10 13 19 24 29 33 35 36 34 31 28 24 19 16 13 12 11 10 11 13 14 14 15 15 17 18 19 21 23 25 25 27
8 8 2 6 2 9 13 21 7 9 13 8 15 11 15 12 10 12 13 21 24 29 34 38 36 34 32 28 22 18 15 13 12 11 10 13 12 13 15 16 18 18 19 21 23 26 27 27 29
3 4 4 3 7 19 27 30 19 12 15 12 11 13 15 9 12 12 13 20 24 27 30 34 37 36 31 27 22 17 15 14 12 12 12 12 13 15 16 16 17 18 20 22 24 27 27 29 30
5 6 5 2 4 10 20 13 4 5 4 8 13 13 9 9 12 12 13 19 22 23 27 32 34 34 30 26 21 17 15 13 12 11 10 12 14 14 15 15 18 20 21 23 25 27 29 30 31
2 10 15 8 8 11 11 28 3 3 5 4 3 5 7 9 12 11 12 18 22 25 27 31 31 31 29 25 20 17 14 13 10 10 11 11 13 13 14 16 19 21 23 24 26 28 27 30 33
Wind_Direction
147 165 8 241 229 224 156 179 179 164 176 125 141 206 210 355 211 322 123 86 100 71 46 43 57 58 72 80 94 101 97 92 84 62 56 47 44 39 33 22 11 356 349 339 334 333 336 329 331
151 140 256 272 249 241 149 165 196 170 128 132 136 143 197 196 118 128 150 123 127 103 75 65 66 63 67 69 69 68 105 104 83 71 52 40 44 36 4 320 313 317 325 351 344 333 316 317 326
150 142 250 259 263 259 238 187 173 138 142 161 150 271 174 148 144 144 139 141 137 117 94 76 75 70 70 70 72 69 68 66 66 66 60 47 48 41 29 22 2 353 329 339 337 318 314 308 311
188 165 151 245 243 241 282 180 160 145 183 218 222 201 192 157 154 158 143 137 137 118 97 83 81 78 73 71 72 67 62 59 58 57 56 54 52 36 9 355 355 326 327 345 342 306 286 280 288
180 222 223 236 229 251 221 187 174 171 167 179 186 187 215 170 140 142 143 137 135 124 114 101 107 93 84 75 73 70 66 60 55 51 47 48 41 32 26 24 18 3 345 320 307 296 294 288 290
205 282 236 247 223 221 209 186 182 192 179 147 201 195 169 153 157 158 153 144 135 136 138 137 127 108 100 91 85 77 71 69 62 53 41 31 15 358 346 339 346 344 340 334 330 325 324 318 306
257 228 275 264 268 243 198 166 201 203 206 212 16 229 110 174 171 165 162 157 153 150 148 143 129 114 111 108 92 82 78 70 60 55 49 43 37 30 21 9 357 347 337 326 315 309 308 299 295
214 240 203 214 229 246 152 167 234 206 216 73 199 232 211 190 172 166 166 167 165 162 156 153 152 141 127 113 103 85 75 65 59 50 42 37 32 28 21 16 7 1 353 345 342 338 317 301 303
257 240 237 224 195 153 158 194 157 142 200 204 202 246 90 162 168 170 174 178 177 177 175 169 165 161 146 130 112 90 76 64 52 44 36 31 25 17 12 9 8 2 354 345 342 338 328 320 314
241 257 257 215 209 223 185 209 181 192 200 225 225 215 168 169 178 184 189 190 190 186 181 181 173 168 159 146 124 102 82 66 51 40 32 27 21 15 11 4 1 359 358 353 349 343 340 341 330
163 258 229 235 234 230 219 216 192 226 229 228 219 208 184 182 191 199 203 202 196 191 187 183 179 173 163 157 141 121 94 73 53 39 29 22 17 11 5 0 358 355 352 353 345 343 343 335 329
220 229 227 204 191 187 217 152 217 224 243 275 238 207 183 190 198 203 204 201 194 191 190 184 181 176 171 160 152 136 121 93 63 37 25 19 12 5 1 358 353 352 349 345 345 341 333 330 328
224 204 211 230 207 226 167 232 252 244 244 227 212 189 194 200 205 206 206 204 198 194 189 186 184 181 179 171 162 146 126 98 68 35 14 11 5 360 354 349 347 344 341 339 337 334 330 327 322
173 239 253 250 227 222 237 234 214 245 241 226 215 213 208 208 205 202 203 201 199 195 193 188 187 188 184 177 166 155 136 111 59 20 1 354 356 352 346 340 339 338 336 336 335 333 330 326 322
345 284 254 225 218 235 207 259 233 248 189 220 220 225 220 217 208 210 206 202 196 196 191 191 189 190 187 185 179 174 170 148 130 348 347 342 339 334 338 339 339 333 332 333 334 332 328 321 319
243 259 250 148 174 177 208 277 238 213 206 237 233 227 221 219 216 216 212 207 201 197 195 190 190 190 191 191 191 194 193 190 222 302 310 310 321 329 335 334 331 325 331 332 331 331 325 323 320
218 269 228 271 202 150 211 277 253 186 230 255 248 233 227 225 219 218 211 206 201 197 192 192 193 194 196 196 196 201 204 206 241 265 294 303 319 325 327 322 318 316 322 325 324 324 323 319 317
270 249 247 252 183 215 219 255 271 261 244 261 264 255 240 228 221 215 209 206 202 198 195 193 193 193 194 194 198 203 211 223 252 251 273 283 301 309 316 314 314 310 312 314 315 317 317 315 315
269 260 266 267 195 235 250 256 271 282 274 262 267 259 248 238 232 215 207 203 199 197 195 196 194 193 190 193 195 209 212 216 240 245 267 270 291 306 315 311 304 301 309 308 313 316 319 324 326
237 259 264 283 200 213 273 269 272 266 266 266 268 265 256 246 231 212 205 202 200 196 198 198 198 195 196 198 201 199 202 226 236 254 267 275 297 307 306 299 294 296 304 305 310 317 320 319 330
234 238 258 260 313 226 283 271 245 259 254 272 263 258 257 236 226 208 203 204 202 200 199 198 198 197 198 201 202 208 226 246 255 257 273 291 296 297 290 287 288 300 302 302 309 317 316 310 310
243 234 248 268 285 275 2 289 277 272 264 249 270 256 240 225 217 203 203 205 206 204 198 198 198 197 200 201 202 204 211 225 233 251 270 280 282 290 288 293 300 305 303 299 301 302 296 296 296
244 111 181 201 250 304 252 269 274 134 251 259 263 266 229 226 206 199 202 207 208 200 197 196 197 199 202 203 205 205 216 231 241 259 274 282 295 303 304 296 298 295 292 291 292 293 291 286 284
135 119 161 162 251 255 257 232 260 190 212 244 259 265 210 196 200 202 199 202 204 200 198 198 197 199 200 201 203 207 213 219 232 245 262 287 295 284 274 278 288 286 285 287 289 289 286 282 278
193 180 285 256 239 267 131 255 263 277 237 236 250 265 164 182 188 191 191 194 195 196 196 199 198 200 198 199 203 207 214 218 232 242 248 258 268 273 277 277 283 284 286 288 287 284 280 278 276
187 215 204 274 282 289 109 251 276 229 245 251 277 260 207 208 208 206 201 198 197 196 197 200 199 199 198 198 201 205 208 216 226 235 244 257 261 270 276 281 283 284 286 287 286 282 279 279 277
157 197 317 283 100 286 256 258 229 203 238 242 251 258 252 228 214 212 204 206 199 200 201 201 200 198 199 198 198 200 203 213 227 239 246 255 260 269 277 277 282 290 288 286 284 280 278 277 275
217 118 136 198 271 270 280 290 284 234 239 234 247 240 253 220 212 212 207 208 209 208 204 204 201 197 195 194 194 196 202 213 226 236 243 254 266 269 273 285 291 292 291 289 285 282 280 277 276
177 201 203 272 226 266 281 271 148 161 152 203 224 236 252 242 229 214 210 211 212 211 206 202 199 195 189 187 187 192 201 215 229 240 251 260 269 278 288 298 296 291 287 284 281 280 282 282 281
314 233 207 225 224 236 267 273 114 249 210 232 244 265 258 237 218 212 207 207 209 207 204 204 196 191 183 179 184 191 200 216 227 242 253 266 279 288 295 293 291 290 289 288 285 285 285 285 285